User: anonymous   Login
Location: Unspecified
(0.0000°N, 0.0000°E)
Time: 19:41:27
(UTC+00:00)
Language:

NOSS 2-1 (C) - Orbit

View from above orbital plane
View from above orbital plane
View from above satellite
View from above satellite

Ground track
Ground track

The orbit data is extracted from the following two-line orbital elements,

1 20691U 90050C   19313.23699393 0.00000200  00000-0  33619-4 0    04
2 20691  63.3241  83.5937 0859998  43.5324 316.4676 13.41964800    02
Epoch (UTC): 09 November 2019 05:41:16
Eccentricity: 0.0859998
inclination: 63.3241°
perigee height: 458 km
apogee height: 1745 km
right ascension of ascending node: 83.5937°
argument of perigee: 43.5324°
revolutions per day: 13.41964800
mean anomaly at epoch: 316.4676°
orbit number at epoch: 0

The dashed part of the orbit path shows where the satellite is in the earth's shadow,  

DLR